ATC136 HTDA-HTZA

Flight info

Callsign ATC136
Flight time N/A
Altitude 7000
Route EGTUT/N0278F060
Aircraft DH8D/M-SDE2E3FGRY/H

Departure

Time 2026-04-30 20:11
Airport Julius Nyerere International Airport (HTDA)

Arrival

Time N/A
Airport Abeid Amani Karume International Airport (HTZA)
Time Latitude Longitude Altitude Speed Heading
2026-04-30 19:32 -6.86777 39.20761 189 ft 0 kts 19°
2026-04-30 20:00 -6.86791 39.20757 188 ft 2 kts 19°
2026-04-30 20:00 -6.86805 39.20752 188 ft 2 kts 20°
2026-04-30 20:00 -6.86818 39.20744 188 ft 2 kts 44°
2026-04-30 20:00 -6.86827 39.20732 187 ft 2 kts 65°
2026-04-30 20:01 -6.86829 39.20703 187 ft 2 kts 107°
2026-04-30 20:01 -6.86827 39.20697 188 ft 0 kts 112°
2026-04-30 20:05 -6.86841 39.20726 187 ft 0 kts 121°
2026-04-30 20:06 -6.86848 39.20744 187 ft 11 kts 109°
2026-04-30 20:06 -6.86882 39.20827 186 ft 8 kts 112°
2026-04-30 20:06 -6.86911 39.20911 186 ft 16 kts 75°
2026-04-30 20:06 -6.86821 39.21014 184 ft 21 kts 45°
2026-04-30 20:07 -6.86715 39.21123 184 ft 22 kts 51°
2026-04-30 20:07 -6.86607 39.21238 182 ft 23 kts 45°
2026-04-30 20:07 -6.86367 39.21481 178 ft 20 kts 45°
2026-04-30 20:08 -6.86326 39.21568 176 ft 12 kts 79°
2026-04-30 20:08 -6.86341 39.21650 174 ft 11 kts 127°
2026-04-30 20:08 -6.86408 39.21663 174 ft 9 kts 210°
2026-04-30 20:08 -6.86431 39.21645 175 ft 2 kts 222°
2026-04-30 20:09 -6.86433 39.21642 175 ft 0 kts 223°
2026-04-30 20:09 -6.86434 39.21642 175 ft 0 kts 224°
2026-04-30 20:10 -6.86641 39.21434 179 ft 60 kts 225°
2026-04-30 20:10 -6.87106 39.20970 184 ft 129 kts 225°
2026-04-30 20:10 -6.87827 39.20220 341 ft 157 kts 226°
2026-04-30 20:11 -6.89245 39.18456 1551 ft 170 kts 237°
2026-04-30 20:11 -6.89415 39.18034 1733 ft 180 kts 248°